Tracking 25701 objects as of 4-Jul-2022
HD Live streaming from Space Station
objects crossing your sky now

FENGYUN 1C DEB

Track FENGYUN 1C DEB now!
10-day predictions


NORAD ID: 32171
Int'l Code: 1999-025CTR
Perigee: 760.2 km
Apogee: 1,554.6 km
Inclination: 102.8 °
Period: 108.3 minutes
Semi major axis: 7528 km
RCS: 0.0135 m2 (small)
Launch date: May 10, 1999
Source: People's Republic of China (PRC)
Launch site: Taiyaun Space Center, China (TSC)

Note: This is SATELLITE DEBRIS
aabbcc
Your satellite tracking list
Your tracking list is empty




NASA's NSSDC Master Catalog

Two Line Element Set (TLE):
1 32171U 99025CTR 22183.61120751  .00001180  00000-0  12522-2 0  9992
2 32171 102.8134 102.6425 0527561 176.9957 309.4840 13.29070477438110
Source of the keplerian elements: AFSPC